Seattle Boeing, WA
on Tuesday, January 8, 2013

Tuesday
Previous Day Next Day
Daily Summary
 ActualAverage (KSEA)Record (KSEA)
Temperature
Mean Temperature °F 42°F  
Max Temperature 55°F 46°F 54°F (1953)
Min Temperature 42°F 37°F 18°F (1949)
Degree Days
Heating Degree Days 16 24  
Month to date heating degree days 192  
Since 1 July heating degree days 2130  
Cooling Degree Days 0 0  
Month to date cooling degree days 0  
Year to date cooling degree days 0  
Moisture
Dew Point 43°F   
Average Humidity 82    
Maximum Humidity 93    
Minimum Humidity 71    
Precipitation
Precipitation 0.53 in 0.20 in 1.13 in (1959)
Month to date precipitation 1.50  
Year to date precipitation 1.50  
Snow
Snow 0.00 in in 4.40 in (1980)
Month to date snowfall  
Since 1 July snowfall  
Snow Depth in   
Wind
Wind Speed 9 mph   
Max Wind Speed 21 mph   
Max Gust Speed 36 mph   
Visibility 7 miles   
Events Rain   

Key: T is trace of precipitation, MM is missing value
Source: NWS Daily Summary
Time(PST)TemperatureDew PointHumidity Pressure Visibility Wind DirectionWind SpeedGust SpeedPrecipitationEvents Conditions
12:08 AM 48.2°F 39.2°F 71% 30.16 in 10.0 miles South 8.1 mph 16.1 mph N/A   Overcast
12:15 AM 48.2°F 39.2°F 71% 30.16 in 10.0 miles SSE 6.9 mph - N/A   Overcast
12:33 AM 48.2°F 39.2°F 71% 30.16 in 10.0 miles SSE 9.2 mph - N/A   Overcast
12:53 AM 48.0°F 39.9°F 74% 30.16 in 10.0 miles South 11.5 mph - N/A   Overcast
1:53 AM 46.9°F 39.9°F 77% 30.16 in 10.0 miles SE 8.1 mph - N/A   Overcast
2:53 AM 46.0°F 39.9°F 79% 30.15 in 10.0 miles SE 8.1 mph - N/A   Mostly Cloudy
3:53 AM 46.9°F 39.9°F 77% 30.14 in 10.0 miles SE 5.8 mph - N/A   Overcast
4:53 AM 48.0°F 41.0°F 77% 30.12 in 10.0 miles South 5.8 mph - 0.00 in Rain Light Rain
5:53 AM 46.0°F 41.0°F 83% 30.11 in 8.0 miles SE 6.9 mph - 0.02 in Rain Light Rain
6:53 AM 44.1°F 39.0°F 82% 30.07 in 5.0 miles East 6.9 mph - 0.04 in Rain Light Rain
7:53 AM 43.0°F 39.0°F 86% 30.05 in 5.0 miles Calm Calm - 0.05 in Rain Light Rain
7:57 AM 42.8°F 39.2°F 87% 30.05 in 5.0 miles SE 3.5 mph - 0.00 in Rain Light Rain
8:53 AM 44.1°F 39.9°F 85% 30.04 in 5.0 miles East 3.5 mph - 0.04 in Rain Light Rain
9:53 AM 44.1°F 39.9°F 85% 30.01 in 3.0 miles SE 3.5 mph - 0.03 in Rain Light Rain
10:25 AM 42.8°F 39.2°F 87% 29.99 in 2.5 miles SE 5.8 mph - 0.01 in   Overcast
10:53 AM 44.1°F 41.0°F 89% 29.97 in 2.5 miles SSE 9.2 mph - 0.01 in   Overcast
11:53 AM 45.0°F 42.1°F 90% 29.94 in 2.5 miles SSE 9.2 mph - 0.01 in Rain Light Rain
12:53 PM 46.0°F 44.1°F 93% 29.90 in 1.2 miles SE 11.5 mph - 0.01 in Rain Light Rain
1:53 PM 48.0°F 46.0°F 93% 29.86 in 3.0 miles SE 15.0 mph - 0.04 in Rain Light Rain
1:58 PM 48.2°F 46.4°F 93% 29.86 in 1.8 miles SE 12.7 mph - 0.00 in Rain Light Rain
2:38 PM 51.8°F 48.2°F 88% 29.85 in 3.0 miles South 10.4 mph - 0.04 in Rain Light Rain
2:53 PM 52.0°F 48.0°F 86% 29.86 in 3.0 miles South 17.3 mph 23.0 mph 0.04 in Rain Light Rain
3:53 PM 53.1°F 48.0°F 83% 29.84 in 6.0 miles South 16.1 mph 24.2 mph 0.02 in   Overcast
4:53 PM 54.0°F 46.9°F 77% 29.82 in 10.0 miles South 20.7 mph 31.1 mph 0.00 in   Overcast
5:53 PM 54.0°F 46.9°F 77% 29.80 in 10.0 miles South 18.4 mph 26.5 mph N/A   Overcast
6:53 PM 55.0°F 46.0°F 72% 29.78 in 10.0 miles South 18.4 mph 35.7 mph N/A   Overcast
7:53 PM 55.0°F 46.0°F 72% 29.76 in 10.0 miles South 19.6 mph 29.9 mph N/A   Overcast
8:53 PM 53.6°F 46.4°F 77% 29.76 in 10.0 miles South 15.0 mph 28.8 mph N/A Rain Light Rain
9:44 PM 53.6°F 46.4°F 77% 29.76 in 10.0 miles South 16.1 mph 26.5 mph 0.03 in Rain Light Rain
9:53 PM 53.1°F 46.9°F 80% 29.76 in 9.0 miles South 18.4 mph 25.3 mph 0.04 in Rain Light Rain
10:53 PM 52.0°F 48.0°F 86% 29.75 in 7.0 miles South 12.7 mph 20.7 mph 0.08 in Rain Light Rain
11:53 PM 52.0°F 46.9°F 83% 29.75 in 9.0 miles SSW 11.5 mph 23.0 mph 0.10 in Rain Light Rain
Moon Phase
Jan. 08 Jan. 11 Jan. 18 Jan. 26 Feb. 03
Sunrise:07:55 AM (PST) Moon Rise:04:33 AM (PST)1/8
Sunset:04:36 PM (PST) Moon Set:01:44 PM (PST)1/8

Copyright © 2014 The Weather Underground, Inc.